カタログに戻る

PERUSAT 1

運用中科学SSO
NORAD 41770·PAYLOAD·🇵🇪 Peru

打ち上げ Sep 16, 2016 から Guiana Space Centre

Loading…

次のパス (今後24時間)

TLE

最新Source: Space-Track

元期: Sep 14, 2026, 14:59 UTC

1 41770U 16058A   26257.62485660  .00000232  00000-0  59661-4 0  9996
2 41770  98.1956 330.0863 0001403  82.2723 277.8635 14.58558088532138

AllMySatでPERUSAT 1をリアルタイム追跡

Download on the App Store